Location: Appleton
(44.2618°N, 88.4157°W)
Time: 10:00:03
(UTC+00:00)

Transit 4A - All Passes

Search period start: 01 March 2021 00:00
Search period end: 11 March 2021 00:00
Orbit: 866 x 978 km, 66.8° (Epoch: 28 February)

Date Brightness Start Highest point End Pass type
(mag) Time Alt. Az. Time Alt. Az. Time Alt. Az.
01 Mar - 00:52:54 10° NNW 00:58:45 47° NE 01:04:25 10° SE visible
01 Mar - 02:39:39 10° NW 02:44:54 32° WSW 02:50:00 10° S visible
01 Mar - 16:00:49 10° S 16:06:51 46° ESE 16:12:50 10° NE daylight
01 Mar - 17:47:28 10° WSW 17:53:21 38° NW 17:59:10 10° NNE daylight
01 Mar - 19:39:13 10° NW 19:41:38 12° NNW 19:44:02 10° N daylight
01 Mar - 23:16:39 10° N 23:20:35 17° NNE 23:24:26 10° ENE daylight
02 Mar - 01:02:08 10° NNW 01:08:11 66° NE 01:14:02 10° SE visible
02 Mar - 02:49:32 10° WNW 02:53:56 22° WSW 02:58:15 10° SSW visible
02 Mar - 14:29:35 10° ESE 14:30:50 11° E 14:32:06 10° E daylight
02 Mar - 16:09:45 10° SSW 16:16:05 67° ESE 16:22:19 10° NE daylight
02 Mar - 17:57:31 10° WSW 18:02:56 29° NW 18:08:17 10° NNE daylight
02 Mar - 19:51:09 10° NNW 19:51:36 10° NNW 19:52:03 10° NNW daylight
02 Mar - 23:25:41 10° NNW 23:30:20 22° NE 23:34:52 10° E daylight
03 Mar - 01:11:26 10° NNW 01:17:32 87° WSW 01:23:24 10° SSE visible
03 Mar - 03:00:00 10° WNW 03:02:55 14° WSW 03:05:48 10° SW visible
03 Mar - 14:35:54 10° SE 14:39:47 17° ESE 14:43:38 10° ENE daylight
03 Mar - 16:18:58 10° SSW 16:25:21 87° WNW 16:31:41 10° NNE daylight
03 Mar - 18:07:47 10° W 18:12:36 22° NW 18:17:23 10° NNE daylight
03 Mar - 23:34:47 10° NNW 23:40:00 29° NE 23:45:04 10° ESE daylight
04 Mar - 01:20:51 10° NW 01:26:47 61° WSW 01:32:32 10° SSE visible
04 Mar - 14:43:46 10° SSE 14:48:48 25° ESE 14:53:49 10° NE daylight
04 Mar - 16:28:24 10° SW 16:34:43 64° NW 16:40:58 10° NNE daylight
04 Mar - 18:18:17 10° WNW 18:22:22 17° NNW 18:26:23 10° N daylight
04 Mar - 21:59:03 10° N 22:01:18 12° NNE 22:03:33 10° NE daylight
04 Mar - 23:43:56 10° NNW 23:49:34 38° NE 23:55:03 10° ESE daylight
05 Mar - 01:30:22 10° NW 01:35:58 41° WSW 01:41:23 10° S visible
05 Mar - 14:52:10 10° S 14:57:54 37° ESE 15:03:35 10° NE daylight
05 Mar - 16:38:05 10° WSW 16:44:10 46° NW 16:50:11 10° NNE daylight
05 Mar - 18:29:04 10° WNW 18:32:12 14° NNW 18:35:18 10° N daylight
05 Mar - 22:07:52 10° N 22:11:12 15° NNE 22:14:29 10° ENE daylight
05 Mar - 23:53:07 10° NNW 23:59:03 53° NE 00:04:48 10° SE daylight
06 Mar - 01:40:05 10° NW 01:45:03 28° WSW 01:49:55 10° SSW visible
06 Mar - 15:00:55 10° S 15:07:04 53° ESE 15:13:09 10° NE daylight
06 Mar - 16:47:59 10° WSW 16:53:42 34° NW 16:59:21 10° NNE daylight
06 Mar - 18:40:13 10° NW 18:42:07 11° NNW 18:43:59 10° N daylight
06 Mar - 22:16:49 10° N 22:21:00 19° NE 22:25:06 10° ENE daylight
07 Mar - 00:02:23 10° NNW 00:08:27 75° ENE 00:14:19 10° SE daylight
07 Mar - 01:50:07 10° WNW 01:54:04 19° WSW 01:57:58 10° SSW visible
07 Mar - 13:28:22 10° SE 13:30:57 13° E 13:33:32 10° ENE daylight
07 Mar - 15:09:57 10° SSW 15:16:19 76° ESE 15:22:35 10° NE daylight
07 Mar - 16:58:06 10° W 17:03:19 26° NW 17:08:28 10° NNE daylight
07 Mar - 22:25:52 10° NNW 22:30:43 24° NE 22:35:26 10° E daylight
08 Mar - 00:11:44 10° NW 00:17:46 77° WSW 00:23:35 10° SSE visible
08 Mar - 02:01:04 10° W 02:03:01 12° W 02:04:58 10° WSW visible
08 Mar - 13:35:34 10° SSE 13:39:56 20° ESE 13:44:16 10° ENE daylight
08 Mar - 15:19:15 10° SW 15:25:38 78° WNW 15:31:56 10° NNE daylight
08 Mar - 17:08:27 10° W 17:13:01 20° NW 17:17:31 10° N daylight
08 Mar - 20:50:40 10° N 20:51:51 11° NNE 20:53:01 10° NNE daylight
08 Mar - 22:34:58 10° NNW 22:40:21 32° NE 22:45:34 10° ESE daylight
09 Mar - 00:21:10 10° NW 00:27:00 53° WSW 00:32:38 10° S visible
09 Mar - 13:43:39 10° SSE 13:48:59 29° ESE 13:54:15 10° NE daylight
09 Mar - 15:28:47 10° SW 15:35:02 56° NW 15:41:11 10° NNE daylight
09 Mar - 17:19:03 10° WNW 17:22:48 16° NNW 17:26:30 10° N daylight
09 Mar - 20:59:08 10° N 21:01:47 13° NNE 21:04:24 10° NE daylight
09 Mar - 22:44:09 10° NNW 22:49:53 43° NE 22:55:27 10° ESE daylight
10 Mar - 00:30:45 10° NW 00:36:08 36° WSW 00:41:22 10° S visible
10 Mar - 13:52:12 10° S 13:58:06 42° ESE 14:03:57 10° NE daylight
10 Mar - 15:38:32 10° WSW 15:44:30 41° NW 15:50:23 10° NNE daylight
10 Mar - 17:29:58 10° NW 17:32:40 13° NNW 17:35:21 10° N daylight
10 Mar - 21:08:00 10° N 21:11:38 16° NNE 21:15:12 10° ENE daylight
10 Mar - 22:53:22 10° NNW 22:59:20 60° NE 23:05:07 10° SE daylight
